| time (UTC) | temp F | wind direction | speed MPH | gust MPH | rain 1hr in | rain 24hr in | rain mn in | humidity % | barometer mb |
| 20260905144551 | 85 | 157 | 1.0 | 7.0 | 0.00 | 0.00 | 0.00 | 90 | 1015.2 |
| 20260905143050 | 85 | 196 | 2.0 | 5.0 | 0.00 | 0.00 | 0.00 | 91 | 1015.3 |
| 20260905141547 | 84 | 151 | 0.0 | 3.0 | 0.00 | 0.00 | 0.00 | 94 | 1015.2 |
| 20260905140045 | 83 | 156 | 1.0 | 5.0 | 0.00 | 0.00 | 0.00 | 96 | 1015.1 |
| 20260905134547 | 81 | 105 | 1.0 | 4.0 | 0.00 | 0.00 | 0.00 | 98 | 1014.9 |
| 20260905133042 | 80 | 91 | 3.0 | 7.0 | 0.00 | 0.00 | 0.00 | 99 | 1014.9 |
| 20260905131540 | 79 | 110 | 0.0 | 0.0 | 0.00 | 0.00 | 0.00 | 99 | 1014.8 |
| 20260905130039 | 78 | 117 | 0.0 | 3.0 | 0.00 | 0.00 | 0.00 | 100 | 1014.6 |
| 20260905124539 | 77 | 124 | 0.0 | 0.0 | 0.00 | 0.01 | 0.00 | 100 | 1014.5 |
| 20260905123037 | 76 | 124 | 0.0 | 0.0 | 0.00 | 0.01 | 0.00 | 100 | 1014.4 |
| 20260905121536 | 76 | 125 | 0.0 | 0.0 | 0.00 | 0.01 | 0.00 | 100 | 1014.3 |
| 20260905120035 | 76 | 140 | 0.0 | 0.0 | 0.00 | 0.01 | 0.00 | 99 | 1014.2 |
| 20260905114534 | 77 | 167 | 0.0 | 0.0 | 0.00 | 0.01 | 0.00 | 99 | 1014.1 |
| 20260905113033 | 77 | 167 | 0.0 | 0.0 | 0.00 | 0.01 | 0.00 | 99 | 1014.0 |
| 20260905111531 | 78 | 167 | 0.0 | 0.0 | 0.00 | 0.01 | 0.00 | 99 | 1013.9 |
| 20260905110030 | 78 | 167 | 0.0 | 0.0 | 0.00 | 0.01 | 0.00 | 99 | 1013.9 |
| 20260905104530 | 78 | 167 | 0.0 | 0.0 | 0.00 | 0.01 | 0.00 | 98 | 1013.6 |
| 20260905103034 | 78 | 167 | 0.0 | 0.0 | 0.00 | 0.01 | 0.00 | 98 | 1013.6 |
| 20260905101530 | 79 | 167 | 0.0 | 0.0 | 0.00 | 0.01 | 0.00 | 99 | 1013.7 |
| 20260905094526 | 79 | 167 | 0.0 | 0.0 | 0.00 | 0.01 | 0.00 | 98 | 1013.5 |
| 20260905093025 | 79 | 167 | 0.0 | 0.0 | 0.00 | 0.01 | 0.00 | 98 | 1013.6 |
| 20260905091524 | 79 | 167 | 0.0 | 0.0 | 0.00 | 0.01 | 0.00 | 98 | 1013.6 |
| 20260905090032 | 79 | 167 | 0.0 | 0.0 | 0.00 | 0.01 | 0.00 | 97 | 1013.6 |
| 20260905084522 | 79 | 167 | 0.0 | 0.0 | 0.00 | 0.01 | 0.00 | 97 | 1013.6 |
| 20260905083021 | 79 | 167 | 0.0 | 0.0 | 0.00 | 0.01 | 0.00 | 97 | 1013.7 |
| 20260905081519 | 79 | 167 | 0.0 | 0.0 | 0.00 | 0.01 | 0.00 | 97 | 1013.8 |
| 20260905080019 | 80 | 167 | 0.0 | 0.0 | 0.00 | 0.01 | 0.00 | 96 | 1014.0 |
| 20260905074516 | 80 | 167 | 0.0 | 0.0 | 0.00 | 0.01 | 0.00 | 96 | 1014.0 |
| 20260905073014 | 80 | 167 | 0.0 | 0.0 | 0.00 | 0.01 | 0.00 | 96 | 1014.1 |
| 20260905071512 | 80 | 165 | 0.0 | 0.0 | 0.00 | 0.01 | 0.00 | 95 | 1014.2 |
| 20260905070011 | 80 | 165 | 0.0 | 0.0 | 0.00 | 0.01 | 0.00 | 95 | 1014.3 |
| 20260905064510 | 81 | 168 | 0.0 | 0.0 | 0.00 | 0.01 | 0.00 | 95 | 1014.3 |
| 20260905063009 | 81 | 169 | 0.0 | 2.0 | 0.00 | 0.01 | 0.00 | 94 | 1014.3 |
| 20260905061507 | 81 | 169 | 1.0 | 4.0 | 0.00 | 0.01 | 0.00 | 94 | 1014.4 |
| 20260905060006 | 82 | 171 | 2.0 | 4.0 | 0.00 | 0.01 | 0.00 | 93 | 1014.5 |
| 20260905054504 | 82 | 184 | 0.0 | 4.0 | 0.00 | 0.01 | 0.00 | 93 | 1014.3 |
| 20260905053003 | 82 | 176 | 0.0 | 8.0 | 0.00 | 0.01 | 0.00 | 93 | 1014.4 |
| 20260905051501 | 82 | 168 | 1.0 | 5.0 | 0.00 | 0.01 | 0.00 | 92 | 1014.3 |
| 20260905044559 | 83 | 167 | 2.0 | 7.0 | 0.00 | 0.01 | 0.01 | 90 | 1014.4 |
| 20260905043100 | 83 | 148 | 1.0 | 3.0 | 0.00 | 0.01 | 0.01 | 89 | 1014.3 |
| 20260905041557 | 83 | 119 | 1.0 | 3.0 | 0.00 | 0.01 | 0.01 | 88 | 1014.4 |
| 20260905040100 | 83 | 121 | 1.0 | 4.0 | 0.00 | 0.01 | 0.01 | 87 | 1014.2 |
| 20260905033055 | 84 | 140 | 2.0 | 6.0 | 0.00 | 0.01 | 0.01 | 86 | 1014.2 |
| 20260905031555 | 84 | 123 | 3.0 | 7.0 | 0.00 | 0.01 | 0.01 | 85 | 1014.1 |
| 20260905030104 | 84 | 113 | 2.0 | 4.0 | 0.00 | 0.01 | 0.01 | 85 | 1014.0 |
| 20260905024554 | 85 | 106 | 2.0 | 4.0 | 0.00 | 0.01 | 0.01 | 84 | 1013.8 |
| 20260905023054 | 85 | 111 | 1.0 | 3.0 | 0.00 | 0.01 | 0.01 | 83 | 1013.5 |
| 20260905021553 | 85 | 105 | 1.0 | 6.0 | 0.00 | 0.01 | 0.01 | 83 | 1013.5 |
| 20260905020106 | 86 | 97 | 2.0 | 7.0 | 0.00 | 0.01 | 0.01 | 83 | 1013.4 |
| 20260905014554 | 86 | 111 | 3.0 | 8.0 | 0.00 | 0.01 | 0.01 | 83 | 1013.4 |
| 20260905013054 | 87 | 107 | 5.0 | 11.0 | 0.00 | 0.01 | 0.01 | 81 | 1013.3 |
| 20260905011626 | 88 | 99 | 8.0 | 13.0 | 0.00 | 0.01 | 0.01 | 77 | 1013.0 |
| 20260905010049 | 89 | 87 | 3.0 | 6.0 | 0.00 | 0.01 | 0.01 | 74 | 1012.6 |
| 20260905004549 | 89 | 100 | 6.0 | 11.0 | 0.00 | 0.01 | 0.01 | 73 | 1012.5 |
| 20260905003049 | 90 | 101 | 5.0 | 9.0 | 0.00 | 0.01 | 0.01 | 72 | 1012.3 |
| 20260905001556 | 90 | 121 | 4.0 | 10.0 | 0.00 | 0.01 | 0.01 | 72 | 1012.1 |
| 20260905000047 | 91 | 97 | 4.0 | 9.0 | 0.00 | 0.01 | 0.01 | 72 | 1012.1 |
| 20260904234545 | 91 | 75 | 5.0 | 10.0 | 0.00 | 0.01 | 0.01 | 72 | 1012.2 |
| 20260904233045 | 90 | 98 | 4.0 | 12.0 | 0.00 | 0.01 | 0.01 | 73 | 1012.2 |
| 20260904231544 | 90 | 100 | 3.0 | 9.0 | 0.00 | 0.01 | 0.01 | 73 | 1012.2 |
| 20260904230043 | 90 | 92 | 7.0 | 12.0 | 0.00 | 0.01 | 0.01 | 73 | 1012.3 |
| 20260904224546 | 89 | 92 | 6.0 | 15.0 | 0.00 | 0.01 | 0.01 | 73 | 1012.4 |
| 20260904223042 | 90 | 104 | 8.0 | 12.0 | 0.00 | 0.01 | 0.01 | 73 | 1012.6 |
| 20260904221540 | 90 | 101 | 7.0 | 13.0 | 0.00 | 0.01 | 0.01 | 72 | 1012.5 |
| 20260904220040 | 93 | 104 | 6.0 | 11.0 | 0.00 | 0.01 | 0.01 | 71 | 1012.5 |
| 20260904214535 | 93 | 180 | 2.0 | 9.0 | 0.00 | 0.01 | 0.01 | 70 | 1012.2 |
| 20260904213032 | 93 | 176 | 4.0 | 9.0 | 0.00 | 0.01 | 0.01 | 70 | 1012.6 |
| 20260904211527 | 93 | 183 | 5.0 | 10.0 | 0.00 | 0.01 | 0.01 | 69 | 1012.9 |
| 20260904210026 | 93 | 248 | 5.0 | 9.0 | 0.00 | 0.01 | 0.01 | 70 | 1013.1 |
| 20260904204518 | 93 | 177 | 2.0 | 5.0 | 0.00 | 0.01 | 0.01 | 69 | 1013.3 |
| 20260904201511 | 92 | 223 | 3.0 | 6.0 | 0.00 | 0.01 | 0.01 | 73 | 1013.6 |
| 20260904200014 | 91 | 157 | 2.0 | 6.0 | 0.00 | 0.01 | 0.01 | 73 | 1013.7 |
| 20260904194509 | 91 | 210 | 2.0 | 5.0 | 0.00 | 0.01 | 0.01 | 73 | 1013.9 |
| 20260904193011 | 91 | 198 | 1.0 | 5.0 | 0.00 | 0.01 | 0.01 | 73 | 1013.9 |
| 20260904191508 | 91 | 200 | 4.0 | 7.0 | 0.00 | 0.01 | 0.01 | 72 | 1014.0 |
| 20260904190006 | 91 | 91 | 2.0 | 7.0 | 0.00 | 0.01 | 0.01 | 73 | 1014.1 |
| 20260904184503 | 91 | 160 | 2.0 | 7.0 | 0.00 | 0.01 | 0.01 | 74 | 1014.3 |
| 20260904183113 | 90 | 199 | 3.0 | 7.0 | 0.00 | 0.01 | 0.01 | 76 | 1014.5 |
| 20260904181608 | 90 | 205 | 5.0 | 10.0 | 0.00 | 0.01 | 0.01 | 77 | 1014.8 |
| 20260904180056 | 89 | 246 | 2.0 | 8.0 | 0.00 | 0.01 | 0.01 | 76 | 1015.0 |
| 20260904174559 | 88 | 196 | 5.0 | 10.0 | 0.00 | 0.01 | 0.01 | 78 | 1015.0 |
| 20260904173050 | 88 | 232 | 4.0 | 9.0 | 0.00 | 0.01 | 0.01 | 83 | 1015.1 |
| 20260904171547 | 88 | 170 | 2.0 | 7.0 | 0.00 | 0.01 | 0.01 | 83 | 1015.4 |
| 20260904170044 | 87 | 207 | 3.0 | 7.0 | 0.00 | 0.01 | 0.01 | 84 | 1015.4 |
| 20260904164546 | 86 | 251 | 2.0 | 7.0 | 0.00 | 0.01 | 0.01 | 87 | 1015.5 |
| 20260904163039 | 86 | 250 | 2.0 | 5.0 | 0.00 | 0.01 | 0.01 | 87 | 1015.7 |
| 20260904161536 | 86 | 190 | 4.0 | 9.0 | 0.00 | 0.01 | 0.01 | 88 | 1015.6 |
| 20260904160032 | 85 | 229 | 4.0 | 7.0 | 0.00 | 0.01 | 0.01 | 89 | 1015.5 |
| 20260904154541 | 84 | 170 | 2.0 | 8.0 | 0.00 | 0.01 | 0.01 | 91 | 1015.4 |
| 20260904153026 | 84 | 179 | 2.0 | 8.0 | 0.00 | 0.01 | 0.01 | 93 | 1015.5 |
| 20260904151522 | 83 | 218 | 5.0 | 11.0 | 0.00 | 0.01 | 0.01 | 93 | 1014.9 |
| 20260904150021 | 82 | 178 | 7.0 | 10.0 | 0.00 | 0.01 | 0.01 | 95 | 1015.2 |